| time (UTC) | temp F | wind direction | speed knots | gust knots | rain 1hr in | rain 24hr in | rain mn in | humidity % | barometer mb |
| 20260506233012 | 49 | 104 | 4.3 | 7.0 | 0.00 | 0.00 | 0.00 | 1 | 1013.8 |
| 20260506231511 | 50 | 99 | 2.6 | 6.1 | 0.00 | 0.00 | 0.00 | 1 | 1014.1 |
| 20260506223012 | 51 | 107 | 4.3 | 8.7 | 0.00 | 0.00 | 0.00 | 10 | 1013.9 |
| 20260506221512 | 52 | 107 | 6.1 | 11.3 | 0.00 | 0.00 | 0.00 | 18 | 1014.0 |
| 20260506220013 | 53 | 106 | 4.3 | 11.3 | 0.00 | 0.00 | 0.00 | 19 | 1014.0 |
| 20260506214512 | 53 | 103 | 5.2 | 10.4 | 0.00 | 0.00 | 0.00 | 17 | 1014.0 |
| 20260506213011 | 53 | 103 | 4.3 | 11.3 | 0.00 | 0.00 | 0.00 | 20 | 1013.9 |
| 20260506211511 | 54 | 106 | 5.2 | 10.4 | 0.00 | 0.00 | 0.00 | 27 | 1013.8 |
| 20260506210012 | 54 | 94 | 3.5 | 9.6 | 0.00 | 0.00 | 0.00 | 34 | 1013.8 |
| 20260506204511 | 55 | 100 | 2.6 | 7.0 | 0.00 | 0.00 | 0.00 | 37 | 1013.7 |
| 20260506203012 | 56 | 86 | 2.6 | 6.1 | 0.00 | 0.00 | 0.00 | 47 | 1013.5 |
| 20260506201512 | 57 | 81 | 2.6 | 7.0 | 0.00 | 0.00 | 0.00 | 60 | 1013.4 |
| 20260506200012 | 59 | 77 | 4.3 | 9.6 | 0.00 | 0.00 | 0.00 | 53 | 1013.4 |
| 20260506194511 | 59 | 66 | 3.5 | 8.7 | 0.00 | 0.00 | 0.00 | 45 | 1013.0 |
| 20260506193011 | 60 | 67 | 4.3 | 10.4 | 0.00 | 0.00 | 0.00 | 45 | 1013.0 |
| 20260506191512 | 60 | 66 | 4.3 | 8.7 | 0.00 | 0.00 | 0.00 | 45 | 1013.0 |
| 20260506190011 | 61 | 71 | 3.5 | 8.7 | 0.00 | 0.00 | 0.00 | 43 | 1012.9 |
| 20260506184512 | 62 | 72 | 3.5 | 7.8 | 0.00 | 0.00 | 0.00 | 41 | 1013.0 |
| 20260506183012 | 62 | 67 | 4.3 | 8.7 | 0.00 | 0.00 | 0.00 | 41 | 1012.9 |
| 20260506181512 | 63 | 66 | 4.3 | 7.8 | 0.00 | 0.00 | 0.00 | 39 | 1012.9 |
| 20260506180011 | 64 | 68 | 3.5 | 7.8 | 0.00 | 0.00 | 0.00 | 37 | 1013.0 |
| 20260506174512 | 64 | 44 | 4.3 | 7.8 | 0.00 | 0.00 | 0.00 | 36 | 1012.9 |
| 20260506173012 | 64 | 43 | 5.2 | 10.4 | 0.00 | 0.00 | 0.00 | 36 | 1012.9 |
| 20260506171512 | 65 | 359 | 1.7 | 6.1 | 0.00 | 0.00 | 0.00 | 33 | 1013.0 |
| 20260506170011 | 66 | 214 | 1.7 | 6.1 | 0.00 | 0.00 | 0.00 | 25 | 1013.1 |
| 20260506164512 | 65 | 250 | 3.5 | 6.1 | 0.00 | 0.00 | 0.00 | 26 | 1013.1 |
| 20260506163011 | 67 | 151 | 4.3 | 7.8 | 0.00 | 0.00 | 0.00 | 23 | 1013.1 |
| 20260506161512 | 67 | 205 | 1.7 | 14.8 | 0.00 | 0.00 | 0.00 | 23 | 1013.0 |
| 20260506160012 | 67 | 169 | 1.7 | 6.1 | 0.00 | 0.00 | 0.00 | 20 | 1013.1 |
| 20260506154511 | 67 | 216 | 3.5 | 8.7 | 0.00 | 0.00 | 0.00 | 21 | 1013.3 |
| 20260506153012 | 67 | 116 | 5.2 | 11.3 | 0.00 | 0.00 | 0.00 | 20 | 1013.3 |
| 20260506150011 | 67 | 127 | 1.7 | 7.8 | 0.00 | 0.00 | 0.00 | 21 | 1013.4 |
| 20260506144511 | 67 | 158 | 2.6 | 7.0 | 0.00 | 0.00 | 0.00 | 22 | 1013.6 |
| 20260506143012 | 67 | 31 | 1.7 | 5.2 | 0.00 | 0.00 | 0.00 | 23 | 1013.7 |
| 20260506141512 | 66 | 192 | 2.6 | 5.2 | 0.00 | 0.00 | 0.00 | 23 | 1013.9 |
| 20260506134512 | 65 | 217 | 3.5 | 10.4 | 0.00 | 0.00 | 0.00 | 27 | 1014.2 |
| 20260506133012 | 65 | 234 | 3.5 | 12.2 | 0.00 | 0.00 | 0.00 | 26 | 1014.3 |
| 20260506131512 | 65 | 192 | 3.5 | 9.6 | 0.00 | 0.00 | 0.00 | 25 | 1014.3 |
| 20260506130012 | 64 | 258 | 1.7 | 4.3 | 0.00 | 0.00 | 0.00 | 24 | 1014.5 |
| 20260506124512 | 64 | 163 | 3.5 | 19.1 | 0.00 | 0.00 | 0.00 | 27 | 1014.7 |
| 20260506123012 | 63 | 221 | 3.5 | 7.8 | 0.00 | 0.00 | 0.00 | 30 | 1014.7 |
| 20260506121512 | 62 | 234 | 2.6 | 8.7 | 0.00 | 0.00 | 0.00 | 33 | 1015.0 |
| 20260506120012 | 62 | 203 | 2.6 | 12.2 | 0.00 | 0.00 | 0.00 | 33 | 1014.9 |
| 20260506113012 | 61 | 244 | 2.6 | 6.1 | 0.00 | 0.00 | 0.00 | 37 | 1015.3 |
| 20260506111512 | 61 | 164 | 1.7 | 6.1 | 0.00 | 0.00 | 0.00 | 37 | 1015.4 |
| 20260506110012 | 60 | 238 | 1.7 | 5.2 | 0.00 | 0.00 | 0.00 | 36 | 1015.5 |
| 20260506104512 | 60 | 243 | 1.7 | 7.8 | 0.00 | 0.00 | 0.00 | 36 | 1015.6 |
| 20260506103012 | 60 | 70 | 0.9 | 7.8 | 0.00 | 0.00 | 0.00 | 35 | 1015.5 |
| 20260506101512 | 60 | 150 | 1.7 | 6.1 | 0.00 | 0.00 | 0.00 | 36 | 1015.8 |
| 20260506100012 | 58 | 247 | 0.9 | 5.2 | 0.00 | 0.00 | 0.00 | 40 | 1015.7 |
| 20260506094512 | 59 | 146 | 1.7 | 2.6 | 0.00 | 0.00 | 0.00 | 38 | 1015.8 |
| 20260506093012 | 59 | 159 | 1.7 | 7.0 | 0.00 | 0.00 | 0.00 | 39 | 1015.7 |
| 20260506091512 | 58 | 28 | 0.9 | 3.5 | 0.00 | 0.00 | 0.00 | 41 | 1015.7 |
| 20260506084512 | 57 | 130 | 0.9 | 5.2 | 0.00 | 0.00 | 0.00 | 42 | 1015.4 |
| 20260506083012 | 56 | 226 | 0.9 | 3.5 | 0.00 | 0.00 | 0.00 | 43 | 1015.4 |
| 20260506081512 | 57 | 175 | 0.0 | 2.6 | 0.00 | 0.00 | 0.00 | 47 | 1015.4 |
| 20260506073012 | 55 | 115 | 0.0 | 1.7 | 0.00 | 0.00 | 0.00 | 53 | 1015.6 |
| 20260506061512 | 46 | 0 | 0.0 | 0.0 | 0.00 | 0.00 | 0.00 | 63 | 1015.1 |
| 20260506044512 | 44 | 0 | 0.0 | 0.0 | 0.00 | 0.00 | 0.00 | 62 | 1014.5 |
| 20260506041512 | 45 | 0 | 0.0 | 0.0 | 0.00 | 0.00 | 0.00 | 62 | 1014.9 |
| 20260506034512 | 45 | 241 | 0.0 | 0.9 | 0.00 | 0.00 | 0.00 | 62 | 1015.0 |
| 20260506033011 | 45 | 0 | 0.0 | 0.0 | 0.00 | 0.00 | 0.00 | 62 | 1015.2 |
| 20260506030012 | 46 | 0 | 0.0 | 0.0 | 0.00 | 0.00 | 0.00 | 62 | 1015.3 |
| 20260506024513 | 46 | 0 | 0.0 | 0.0 | 0.00 | 0.00 | 0.00 | 62 | 1015.2 |
| 20260506021512 | 45 | 0 | 0.0 | 0.0 | 0.00 | 0.00 | 0.00 | 61 | 1015.2 |
| 20260506020012 | 43 | 0 | 0.0 | 0.0 | 0.00 | 0.00 | 0.00 | 59 | 1015.3 |
| 20260506014511 | 44 | 0 | 0.0 | 0.0 | 0.00 | 0.00 | 0.00 | 61 | 1015.3 |
| 20260506013011 | 45 | 0 | 0.0 | 0.0 | 0.00 | 0.00 | 0.00 | 62 | 1015.4 |
| 20260506011512 | 45 | 0 | 0.0 | 0.0 | 0.00 | 0.00 | 0.00 | 62 | 1015.5 |
| 20260506010012 | 46 | 0 | 0.0 | 0.0 | 0.00 | 0.00 | 0.00 | 63 | 1015.7 |
| 20260506004511 | 50 | 290 | 1.7 | 2.6 | 0.00 | 0.00 | 0.00 | 58 | 1015.7 |
| 20260506003012 | 50 | 318 | 0.9 | 3.5 | 0.00 | 0.00 | 0.00 | 59 | 1015.9 |
| 20260506001512 | 49 | 315 | 0.9 | 2.6 | 0.00 | 0.00 | 0.00 | 59 | 1015.9 |